Вернуться в каталог

STARLINK-11528

АктивенСвязьVLEO
NORAD 62521·PAYLOAD·🇺🇸 United States

Запущен Jan 8, 2025 с Cape Canaveral Space Force Station

Loading…

Ближайшие Пролёты (ближайшие 24 часа)

TLE

СвежийSource: CelesTrak SupGP

Эпоха: Sep 15, 2026, 02:32 UTC

1 62521C 25004L   26258.10604167 -.00096385  00000+0 -74866-3 0  2589
2 62521  43.0010   9.3256 0001839 265.2283 143.1334 15.70884294    18

Отслеживайте STARLINK-11528 в реальном времени с AllMySat

Download on the App Store